This is the latest recevied weather packets stored in our database for station/object K7GFH-13. If no packets are shown the sender has not sent any weather packets the latest 10 day(s).
| Time | Temp. | Humidity | Pressure | Rain* | Wind** | Luminosity | Snow |
|---|---|---|---|---|---|---|---|
| 1778055659 | 13.89° C | 89% | 1019.4 hPa | 0 mm | - | 0 W/m² | - |
| 1778054758 | 13.89° C | 89% | 1019.3 hPa | 0 mm | - | 0 W/m² | - |
| 1778053855 | 13.89° C | 89% | 1019.5 hPa | 0 mm | - | 0 W/m² | - |
| 1778052953 | 14.44° C | 87% | 1019.2 hPa | 0 mm | - | 0 W/m² | - |
| 1778052050 | 14.44° C | 88% | 1019.1 hPa | 0 mm | - | 0 W/m² | - |
| 1778051148 | 14.44° C | 88% | 1019 hPa | 0 mm | - | 0 W/m² | - |
| 1778050245 | 14.44° C | 88% | 1018.9 hPa | 0 mm | - | 0 W/m² | - |
| 1778049342 | 14.44° C | 86% | 1018.9 hPa | 0 mm | - | 0 W/m² | - |
| 1778048439 | 14.44° C | 87% | 1018.9 hPa | 0 mm | - | 0 W/m² | - |
| 1778047537 | 14.44° C | 86% | 1018.8 hPa | 0 mm | - | 0 W/m² | - |
| 1778046633 | 14.44° C | 86% | 1018.9 hPa | 0 mm | - | 0 W/m² | - |
| 1778045730 | 14.44° C | 87% | 1018.8 hPa | 0 mm | - | 0 W/m² | - |
| 1778044830 | 14.44° C | 88% | 1018.8 hPa | 0 mm | - | 0 W/m² | - |
| 1778043927 | 14.44° C | 85% | 1018.5 hPa | 0 mm | - | 0 W/m² | - |
| 1778043023 | 15° C | 85% | 1018.6 hPa | 0 mm | - | 0 W/m² | - |
| 1778042120 | 15° C | 85% | 1018.4 hPa | 0 mm | - | 0 W/m² | - |
| 1778041221 | 14.44° C | 86% | 1018.2 hPa | 0 mm | - | 0 W/m² | - |
| 1778040319 | 15° C | 84% | 1018.2 hPa | 0 mm | - | 0 W/m² | - |
| 1778039414 | 15° C | 83% | 1017.9 hPa | 0 mm | - | 0 W/m² | - |
| 1778038512 | 15° C | 81% | 1017.7 hPa | 0 mm | - | 0 W/m² | - |
| 1778037608 | 15° C | 82% | 1017.7 hPa | 0 mm | - | 2 W/m² | - |
| 1778036707 | 15.56° C | 81% | 1017.4 hPa | 0 mm | - | 7 W/m² | - |
| 1778035803 | 16.11° C | 77% | 1017.5 hPa | 0 mm | - | 15 W/m² | - |
| 1778034898 | 15.56° C | 75% | 1017.3 hPa | 0 mm | - | 22 W/m² | - |
| 1778033997 | 15.56° C | 75% | 1017.4 hPa | 0 mm | - | 26 W/m² | - |
* Rain latest hour (hover to see other rain measurements)
** Current wind speed in m/s (hover to see current wind gust speed)